LROP Weather Reports


time (UTC)temp
C
wind
direction
speed
KPH
gust
KPH
rain 1hr
cm
rain 24hr
cm
rain mn
cm
humidity
%
barometer
mb
20260901230318 22 70 11.3 0.0 0.00 0.00 0.00 69 1018.0
20260901224802 22 70 14.5 0.0 0.00 0.00 0.00 61 1018.0
20260901223302 22 70 14.5 0.0 0.00 0.00 0.00 61 1018.0
20260901221801 23 70 14.5 0.0 0.00 0.00 0.00 57 1018.0
20260901220302 23 70 14.5 0.0 0.00 0.00 0.00 57 1018.0
20260901214803 23 60 14.5 0.0 0.00 0.00 0.00 57 1017.0
20260901213405 25 40 12.9 0.0 0.00 0.00 0.00 54 1017.0
20260901211802 25 40 12.9 0.0 0.00 0.00 0.00 54 1017.0
20260901210332 25 40 12.9 0.0 0.00 0.00 0.00 54 1017.0
20260901204804 25 70 4.8 0.0 0.00 0.00 0.00 51 1017.0
20260901203334 25 70 4.8 0.0 0.00 0.00 0.00 51 1017.0
20260901201803 23 20 11.3 0.0 0.00 0.00 0.00 54 1017.0
20260901200302 23 20 11.3 0.0 0.00 0.00 0.00 54 1017.0
20260901194915 23 20 4.8 0.0 0.00 0.00 0.00 54 1017.0
20260901193325 23 20 4.8 0.0 0.00 0.00 0.00 54 1017.0
20260901191825 25 50 4.8 0.0 0.00 0.00 0.00 51 1017.0
20260901190316 25 50 4.8 0.0 0.00 0.00 0.00 51 1017.0
20260901184802 25 0 0.0 0.0 0.00 0.00 0.00 51 1016.0
20260901183302 25 0 0.0 0.0 0.00 0.00 0.00 51 1016.0
20260901181802 25 120 3.2 0.0 0.00 0.00 0.00 47 1016.0
20260901180302 25 120 3.2 0.0 0.00 0.00 0.00 47 1016.0
20260901174801 26 110 8.0 0.0 0.00 0.00 0.00 45 1016.0
20260901173303 26 110 8.0 0.0 0.00 0.00 0.00 45 1016.0
20260901171803 27 60 9.7 0.0 0.00 0.00 0.00 37 1015.0
20260901170302 27 60 9.7 0.0 0.00 0.00 0.00 37 1015.0
20260901164803 30 90 11.3 0.0 0.00 0.00 0.00 33 1015.0
20260901163309 30 90 11.3 0.0 0.00 0.00 0.00 33 1015.0
20260901161802 31 90 9.7 0.0 0.00 0.00 0.00 31 1015.0
20260901160306 31 90 9.7 0.0 0.00 0.00 0.00 31 1015.0
20260901154802 31 1.6 0.0 0.00 0.00 0.00 33 1015.0
20260901153302 31 1.6 0.0 0.00 0.00 0.00 33 1015.0
20260901151802 30 240 4.8 0.0 0.00 0.00 0.00 31 1015.0
20260901150302 30 240 4.8 0.0 0.00 0.00 0.00 31 1015.0
20260901144840 32 300 12.9 0.0 0.00 0.00 0.00 27 1015.0
20260901143302 32 300 12.9 0.0 0.00 0.00 0.00 27 1015.0
20260901141815 32 310 11.3 0.0 0.00 0.00 0.00 29 1015.0
20260901140415 32 4.8 0.0 0.00 0.00 0.00 24 1015.0
20260901134802 32 4.8 0.0 0.00 0.00 0.00 24 1015.0
20260901133302 32 4.8 0.0 0.00 0.00 0.00 24 1015.0
20260901131810 32 270 9.7 0.0 0.00 0.00 0.00 24 1015.0
20260901130301 32 270 9.7 0.0 0.00 0.00 0.00 24 1015.0
20260901124808 32 8.0 0.0 0.00 0.00 0.00 24 1016.0
20260901123302 32 8.0 0.0 0.00 0.00 0.00 24 1016.0
20260901121801 32 320 11.3 0.0 0.00 0.00 0.00 24 1016.0
20260901120302 32 320 11.3 0.0 0.00 0.00 0.00 24 1016.0
20260901114802 31 300 9.7 0.0 0.00 0.00 0.00 24 1016.0
20260901113302 31 300 9.7 0.0 0.00 0.00 0.00 24 1016.0
20260901111802 31 170 4.8 0.0 0.00 0.00 0.00 24 1016.0
20260901110302 31 170 4.8 0.0 0.00 0.00 0.00 24 1016.0
20260901104802 30 4.8 0.0 0.00 0.00 0.00 25 1016.0
20260901103302 30 4.8 0.0 0.00 0.00 0.00 25 1016.0
20260901101858 30 1.6 0.0 0.00 0.00 0.00 25 1016.0
20260901100304 30 1.6 0.0 0.00 0.00 0.00 25 1016.0
20260901094803 28 3.2 0.0 0.00 0.00 0.00 27 1016.0
20260901093302 28 3.2 0.0 0.00 0.00 0.00 27 1016.0
20260901091802 27 90 8.0 0.0 0.00 0.00 0.00 28 1017.0
20260901090303 27 90 8.0 0.0 0.00 0.00 0.00 28 1017.0
20260901084802 27 40 8.0 0.0 0.00 0.00 0.00 32 1017.0
20260901083311 27 40 8.0 0.0 0.00 0.00 0.00 32 1017.0
20260901081801 27 50 9.7 0.0 0.00 0.00 0.00 39 1017.0
20260901080304 27 50 9.7 0.0 0.00 0.00 0.00 39 1017.0
20260901074808 25 60 9.7 0.0 0.00 0.00 0.00 47 1017.0
20260901073302 25 60 9.7 0.0 0.00 0.00 0.00 47 1017.0
20260901071801 23 50 8.0 0.0 0.00 0.00 0.00 50 1017.0
20260901070301 23 50 8.0 0.0 0.00 0.00 0.00 50 1017.0
20260901064802 22 30 9.7 0.0 0.00 0.00 0.00 57 1017.0
20260901063302 22 30 9.7 0.0 0.00 0.00 0.00 57 1017.0
20260901061802 21 350 9.7 0.0 0.00 0.00 0.00 57 1017.0
20260901060302 21 350 9.7 0.0 0.00 0.00 0.00 57 1017.0
20260901054802 20 20 8.0 0.0 0.00 0.00 0.00 64 1017.0
20260901053302 20 20 8.0 0.0 0.00 0.00 0.00 64 1017.0
20260901051802 17 30 9.7 0.0 0.00 0.00 0.00 73 1016.0
20260901050302 17 30 9.7 0.0 0.00 0.00 0.00 73 1016.0
20260901044825 17 20 11.3 0.0 0.00 0.00 0.00 73 1016.0
20260901043302 17 20 11.3 0.0 0.00 0.00 0.00 73 1016.0
20260901041802 17 30 9.7 0.0 0.00 0.00 0.00 77 1016.0
20260901040301 17 30 9.7 0.0 0.00 0.00 0.00 77 1016.0
20260901034802 16 50 4.8 0.0 0.00 0.00 0.00 83 1016.0
20260901033302 16 50 4.8 0.0 0.00 0.00 0.00 83 1016.0
20260901031801 17 90 4.8 0.0 0.00 0.00 0.00 73 1016.0
20260901030301 17 90 4.8 0.0 0.00 0.00 0.00 73 1016.0
20260901024802 17 60 4.8 0.0 0.00 0.00 0.00 73 1016.0
20260901023301 17 60 4.8 0.0 0.00 0.00 0.00 73 1016.0
20260901021802 17 60 4.8 0.0 0.00 0.00 0.00 68 1016.0
20260901020301 17 60 4.8 0.0 0.00 0.00 0.00 68 1016.0
20260901014802 17 40 8.0 0.0 0.00 0.00 0.00 68 1016.0
20260901013302 17 40 8.0 0.0 0.00 0.00 0.00 68 1016.0
20260901011802 17 60 4.8 0.0 0.00 0.00 0.00 68 1016.0
20260901010303 17 60 4.8 0.0 0.00 0.00 0.00 68 1016.0
20260901004802 17 50 4.8 0.0 0.00 0.00 0.00 68 1017.0
20260901003302 17 50 4.8 0.0 0.00 0.00 0.00 68 1017.0
20260901001801 18 10 11.3 0.0 0.00 0.00 0.00 60 1017.0
20260901000303 18 10 11.3 0.0 0.00 0.00 0.00 60 1017.0
20260831234802 20 10 12.9 0.0 0.00 0.00 0.00 56 1017.0
20260831233302 20 10 12.9 0.0 0.00 0.00 0.00 56 1017.0
20260831231803 20 30 8.0 0.0 0.00 0.00 0.00 53 1017.0